Location: Poughquag
(41.6090°N, 73.6820°W)
Time: 02:09:19
(UTC-04:00)

Vanguard 2 Rocket - Pass Details

Date: 01 June 2020
Orbit: 556 x 3324 km, 32.9° (Epoch: 06 July)

Event Time Altitude Azimuth Distance (km) Brightness Sun altitude
Rises 21:17:27 0° 274° (W) 5,527 11.9 -9.1°
Reaches altitude 10° 21:21:14 10° 265° (W) 4,889 11.3 -9.6°
Maximum altitude 21:33:31 31° 210° (SSW) 4,270 10.2 -11.3°
Enters shadow 21:49:09 10° 158° (SSE) 6,237 10.6 -13.3°
Drops below altitude 10° 21:49:22 10° 158° (SSE) 6,272 - -13.3°
Sets 21:55:12 0° 149° (SSE) 7,264 - -14.1°
